Weather History for KTRK - November, 2012

Change the Weather History Date:

Wednesday, November 7, 2012

  Actual Average (KRNO) Record (KRNO)
Temperature  
Mean Temperature 43 °F 46 °F  
Max Temperature 62 °F 59 °F 76 °F (2006)
Min Temperature 24 °F 33 °F 12 °F (1961)
Degree Days  
Heating Degree Days 22 19  
Month to date heating degree days 127  
Since 1 July heating degree days 563  
Cooling Degree Days 0 0  
Month to date cooling degree days 0  
Year to date cooling degree days 839  
Moisture  
Dew Point 23 °F    
Average Humidity 44    
Maximum Humidity 93    
Minimum Humidity 24    
Precipitation  
Precipitation 0.00 in 0.02 in 0.60 in (2002)
Month to date precipitation 0.15  
Year to date precipitation 5.70  
Snow  
Snow 0.00 in 0.00 in 1.70 in (1919)
Month to date snowfall 0.4  
Since 1 July snowfall 0.8  
Since 1 September snowfall 0.8  
Snow Depth -    
Sea Level Pressure  
Sea Level Pressure 30.08 in    
Wind  
Wind Speed 6 mph (SSW)    
Max Wind Speed 17 mph    
Max Gust Speed 24 mph    
Visibility 10 miles    
Events      
T = Trace of Precipitation, MM = Missing Value Source: NWS Daily Summary

Daily Weather History Graph

Daily Weather History Graph

Search for Another Location

Airport or City:

Trip Planner

Search our weather history database for the weather conditions in past years. The results will help you decide how hot, cold, wet, or windy it might be!

Date:

Astronomy

Nov. 07, 2012 Rise Set
Actual Time 6:35 AM PST 4:52 PM PST
Civil Twilight 6:07 AM PST 5:20 PM PST
Nautical Twilight 5:35 AM PST 5:52 PM PST
Astronomical Twilight 5:04 AM PST 6:23 PM PST
Moon No Moon Rise 1:01 PM PST (11/7)
Length of Visible Light 11h 12m
Length of Day
10h 16m
Last Quarter, 42% of the Moon is Illuminated
Nov 7
Last Quarter
Nov 13
New
Nov 20
First Quarter
Nov 28
Full
Dec 6
Last Quarter

Hourly Weather History & Observations

Time (PST) Temp. Windchill Dew Point Humidity Pressure Visibility Wind Dir Wind Speed Gust Speed Precip Events Conditions
12:15 AM 32.0 °F - 24.8 °F 75% 30.29 in 10.0 mi Calm Calm - N/A   Clear
5:15 AM 26.6 °F - 24.8 °F 93% 30.24 in 10.0 mi Calm Calm - N/A   Clear
5:35 AM 26.6 °F - 24.8 °F 93% 30.24 in 10.0 mi Calm Calm - N/A   Clear
7:55 AM 24.8 °F - 23.0 °F 93% 30.23 in 10.0 mi Calm Calm - N/A   Partly Cloudy
8:55 AM 39.2 °F - 30.2 °F 70% 30.21 in 10.0 mi Calm Calm - N/A   Partly Cloudy
9:55 AM 50.0 °F - 30.2 °F 47% 30.19 in 10.0 mi East 3.5 mph - N/A   Clear
10:50 AM 62.6 °F - 24.8 °F 24% 30.17 in 10.0 mi WSW 16.1 mph 24.2 mph N/A   Partly Cloudy
11:55 AM 62.6 °F - 24.8 °F 24% 30.17 in 10.0 mi SW 15.0 mph 23.0 mph N/A   Partly Cloudy
1:50 PM 62.6 °F - 26.6 °F 26% 30.11 in 10.0 mi SW 12.7 mph 21.9 mph N/A   Partly Cloudy
2:55 PM 60.8 °F - 24.8 °F 25% 30.09 in 10.0 mi WSW 11.5 mph 19.6 mph N/A   Partly Cloudy
3:45 PM 57.2 °F - 24.8 °F 29% 30.09 in 10.0 mi WSW 15.0 mph 20.7 mph N/A   Scattered Clouds
4:45 PM 50.0 °F - 26.6 °F 40% 30.08 in 10.0 mi SSW 6.9 mph - N/A   Scattered Clouds
4:55 PM 48.2 °F - 26.6 °F 43% 30.08 in 10.0 mi SSW 6.9 mph - N/A   Clear
5:15 PM 48.2 °F - 26.6 °F 43% 30.08 in 10.0 mi SW 10.4 mph - N/A   Clear
5:35 PM 50.0 °F - 26.6 °F 40% 30.08 in 10.0 mi SW 9.2 mph - N/A   Clear
5:55 PM 50.0 °F - 24.8 °F 37% 30.08 in 10.0 mi SW 9.2 mph - N/A   Clear
6:15 PM 44.6 °F 40.7 °F 23.0 °F 43% 30.08 in 10.0 mi SW 6.9 mph - N/A   Clear
6:35 PM 44.6 °F 40.7 °F 23.0 °F 43% 30.07 in 10.0 mi SSW 6.9 mph - N/A   Clear
6:55 PM 44.6 °F 41.4 °F 23.0 °F 43% 30.06 in 10.0 mi SSW 5.8 mph - N/A   Clear
7:15 PM 46.4 °F 42.4 °F 21.2 °F 37% 30.05 in 10.0 mi SW 8.1 mph - N/A   Clear
7:35 PM 44.6 °F 39.7 °F 21.2 °F 39% 30.05 in 10.0 mi SW 9.2 mph - N/A   Clear
7:55 PM 44.6 °F 39.7 °F 19.4 °F 37% 30.04 in 10.0 mi South 9.2 mph - N/A   Clear
8:15 PM 46.4 °F 41.5 °F 19.4 °F 34% 30.04 in 10.0 mi SSW 10.4 mph - N/A   Clear
8:35 PM 46.4 °F 41.9 °F 19.4 °F 34% 30.04 in 10.0 mi SSW 9.2 mph 17.3 mph N/A   Clear
8:55 PM 46.4 °F 41.9 °F 19.4 °F 34% 30.03 in 10.0 mi SSW 9.2 mph - N/A   Clear
9:15 PM 44.6 °F 39.2 °F 19.4 °F 37% 30.03 in 10.0 mi SW 10.4 mph - N/A   Clear
9:35 PM 46.4 °F 42.9 °F 19.4 °F 34% 30.02 in 10.0 mi SSW 6.9 mph - N/A   Clear
9:55 PM 44.6 °F 39.2 °F 19.4 °F 37% 30.02 in 10.0 mi SSW 10.4 mph - N/A   Clear
10:15 PM 44.6 °F 41.4 °F 19.4 °F 37% 30.01 in 10.0 mi SSW 5.8 mph - N/A   Clear
10:35 PM 44.6 °F 39.2 °F 19.4 °F 37% 30.00 in 10.0 mi SSW 10.4 mph 17.3 mph N/A   Clear
10:55 PM 46.4 °F 40.4 °F 21.2 °F 37% 29.99 in 10.0 mi South 13.8 mph - N/A   Partly Cloudy
11:15 PM 46.4 °F 39.5 °F 23.0 °F 40% 29.98 in 10.0 mi South 17.3 mph 23.0 mph N/A   Mostly Cloudy
11:35 PM 46.4 °F 40.1 °F 23.0 °F 40% 29.97 in 10.0 mi South 15.0 mph 19.6 mph N/A   Mostly Cloudy
11:55 PM 46.4 °F 41.1 °F 23.0 °F 40% 29.96 in 10.0 mi SSE 11.5 mph 23.0 mph N/A   Mostly Cloudy